New Roads False River Regiona, LA

6:11 PM CDT on September 22, 2019 (GMT -0500)
False River

Weather History for KHZR - July, 2019

Change the Weather History Date:

Saturday, July 13, 2019

  Actual Average (KBTR) Record (KBTR)
Temperature  
Mean Temperature 74 °F -  
Max Temperature 78 °F 91 °F 103 °F (1901)
Min Temperature 71 °F 73 °F 65 °F (1898)
Cooling Degree Days 10    
Growing Degree Days 24 (Base 50)    
Moisture  
Dew Point 72 °F    
Average Humidity 92    
Maximum Humidity 100    
Minimum Humidity 78    
Precipitation  
Precipitation 1.14 in - - ()
Sea Level Pressure  
Sea Level Pressure 29.73 in    
Wind  
Wind Speed 18 mph (East)    
Max Wind Speed 29 mph    
Max Gust Speed 45 mph    
Visibility 5 miles    
Events Rain    
Averages and records for this station are not official NWS values.
T = Trace of Precipitation, MM = Missing Value Source: NWS Daily Summary

Daily Weather History Graph

Daily Weather History Graph

Search for Another Location

Airport or City:

Astronomy

Jul. 13, 2019 Rise Set
Actual Time 6:12 AM CDT 8:10 PM CDT
Civil Twilight 5:45 AM CDT 8:38 PM CDT
Nautical Twilight 5:12 AM CDT 9:11 PM CDT
Astronomical Twilight 4:36 AM CDT 9:46 PM CDT
Moon 5:35 PM CDT (7/13) 3:28 AM CDT (7/13)
Length of Visible Light 14h 53m
Length of Day
13h 58m
Waxing Gibbous, 90% of the Moon is Illuminated
Jul 13
Waxing Gibbous
Jul 16
Full
Jul 24
Last Quarter
Jul 31
New
Aug 7
First Quarter

Hourly Weather History & Observations

Time (CDT) Temp. Dew Point Humidity Pressure Visibility Wind Dir Wind Speed Gust Speed Precip Events Conditions
12:16 AM 78.8 °F 73.4 °F 83% 29.71 in 10.0 mi ENE 16.1 mph 21.9 mph N/A   Overcast
1:14 AM 78.8 °F 73.4 °F 83% 29.70 in 10.0 mi East 12.7 mph 25.3 mph N/A   Light Drizzle
1:34 AM 77.0 °F 73.4 °F 89% 29.70 in 7.0 mi ENE 10.4 mph 16.1 mph N/A Rain Rain
1:54 AM 75.2 °F 75.2 °F 100% 29.69 in 7.0 mi ENE 16.1 mph 24.2 mph 0.03 in Rain Light Rain
2:34 AM 75.2 °F 73.4 °F 94% 29.67 in 10.0 mi ENE 10.4 mph 17.3 mph N/A   Overcast
3:56 AM 78.8 °F 73.4 °F 83% 29.64 in 10.0 mi ENE 15.0 mph 23.0 mph N/A   Overcast
4:16 AM 77.0 °F 75.2 °F 94% 29.64 in 10.0 mi ENE 15.0 mph 28.8 mph N/A   Overcast
4:34 AM 78.8 °F 73.4 °F 83% 29.64 in 10.0 mi East 15.0 mph 27.6 mph N/A   Overcast
4:56 AM 78.8 °F 73.4 °F 83% 29.64 in 10.0 mi East 18.4 mph 24.2 mph N/A   Overcast
5:35 AM 75.2 °F 73.4 °F 94% 29.65 in 4.0 mi East 20.7 mph 28.8 mph N/A Rain Light Rain
5:54 AM 75.2 °F 73.4 °F 94% 29.65 in 10.0 mi East 16.1 mph 28.8 mph N/A   Overcast
6:14 AM 77.0 °F 73.4 °F 89% 29.66 in 7.0 mi East 17.3 mph 27.6 mph N/A   Overcast
6:36 AM 77.0 °F 73.4 °F 89% 29.66 in 5.0 mi East 17.3 mph 29.9 mph N/A Rain Rain
7:14 AM 77.0 °F 71.6 °F 83% 29.67 in 7.0 mi East 20.7 mph 28.8 mph N/A   Overcast
7:34 AM 75.2 °F 73.4 °F 94% 29.68 in 5.0 mi East 13.8 mph 21.9 mph 0.01 in Rain Light Rain
7:54 AM 75.2 °F 71.6 °F 89% 29.69 in 4.0 mi East 18.4 mph 27.6 mph 0.01 in Rain Light Rain
8:35 AM 77.0 °F 71.6 °F 83% 29.70 in 10.0 mi East 19.6 mph 28.8 mph N/A   Overcast
8:54 AM 77.0 °F 71.6 °F 83% 29.70 in 10.0 mi ESE 18.4 mph 27.6 mph N/A   Overcast
9:34 AM 77.0 °F 69.8 °F 78% 29.71 in 7.0 mi East 21.9 mph 33.4 mph N/A   Overcast
9:54 AM 77.0 °F 69.8 °F 78% 29.70 in 10.0 mi East 16.1 mph 28.8 mph N/A   Overcast
10:14 AM 75.2 °F 69.8 °F 83% 29.70 in 3.0 mi East 18.4 mph 38.0 mph N/A Rain Light Rain
10:34 AM 73.4 °F 71.6 °F 94% 29.70 in 2.5 mi ENE 18.4 mph 32.2 mph N/A Rain Light Rain
10:54 AM 73.4 °F 71.6 °F 94% 29.70 in 2.0 mi East 23.0 mph 33.4 mph 0.01 in Rain Light Rain
11:14 AM 73.4 °F 71.6 °F 94% 29.70 in 2.0 mi East 19.6 mph 32.2 mph 0.01 in Rain Light Rain
11:35 AM 73.4 °F 71.6 °F 94% 29.71 in 1.8 mi East 24.2 mph 39.1 mph 0.03 in Rain Light Rain
11:54 AM 71.6 °F 71.6 °F 100% 29.71 in 3.0 mi ESE 28.8 mph 44.9 mph 0.05 in Rain Light Rain
12:14 PM 71.6 °F 71.6 °F 100% 29.71 in 2.5 mi East 20.7 mph 36.8 mph N/A Rain Light Rain
12:35 PM 71.6 °F 71.6 °F 100% 29.71 in 3.0 mi East 20.7 mph 39.1 mph 0.02 in Rain Rain
12:54 PM 73.4 °F 71.6 °F 94% 29.71 in 2.0 mi East 21.9 mph 40.3 mph 0.05 in Rain Rain
1:56 PM 73.4 °F 71.6 °F 94% 29.70 in 2.0 mi East 25.3 mph 36.8 mph 0.11 in Rain Rain
2:14 PM 73.4 °F 71.6 °F 94% 29.71 in 3.0 mi East 25.3 mph 38.0 mph 0.02 in Rain Light Rain
2:34 PM 73.4 °F 71.6 °F 94% 29.72 in 3.0 mi East 24.2 mph 36.8 mph 0.05 in Rain Light Rain
3:17 PM 73.4 °F 71.6 °F 94% 29.73 in 3.0 mi ESE 18.4 mph 38.0 mph 0.06 in Rain Light Rain
3:34 PM 73.4 °F 71.6 °F 94% 29.73 in 2.5 mi ESE 21.9 mph 31.1 mph 0.07 in Rain Light Rain
3:54 PM 73.4 °F 71.6 °F 94% 29.74 in 2.5 mi ESE 20.7 mph 35.7 mph 0.08 in Rain Light Rain
4:14 PM 73.4 °F 73.4 °F 100% 29.74 in 4.0 mi ESE 19.6 mph 27.6 mph 0.01 in Rain Light Rain
4:54 PM 73.4 °F 71.6 °F 94% 29.73 in 2.5 mi East 23.0 mph 36.8 mph 0.10 in Rain Light Rain
5:14 PM 73.4 °F 71.6 °F 94% 29.74 in 2.5 mi East 24.2 mph 33.4 mph 0.02 in Rain Rain
5:34 PM 73.4 °F 71.6 °F 94% 29.73 in 2.5 mi ESE 26.5 mph 36.8 mph 0.05 in Rain Rain
5:55 PM 73.4 °F 71.6 °F 94% 29.74 in 3.0 mi East 20.7 mph 36.8 mph 0.08 in Rain Rain
6:15 PM 71.6 °F 71.6 °F 100% 29.74 in 4.0 mi ESE 24.2 mph 36.8 mph 0.02 in Rain Light Rain
6:54 PM 73.4 °F 71.6 °F 94% 29.76 in 3.0 mi ESE 17.3 mph 29.9 mph 0.07 in Rain Rain
7:16 PM 73.4 °F 71.6 °F 94% 29.76 in 4.0 mi ESE 23.0 mph 34.5 mph 0.04 in Rain Rain
7:34 PM 73.4 °F 71.6 °F 94% 29.77 in 5.0 mi ESE 20.7 mph 32.2 mph 0.05 in Rain Light Rain
7:54 PM 73.4 °F 71.6 °F 94% 29.78 in 5.0 mi ESE 25.3 mph 41.4 mph 0.08 in Rain Light Rain
8:14 PM 73.4 °F 71.6 °F 94% 29.78 in 4.0 mi ESE 23.0 mph 34.5 mph 0.05 in Rain Rain
8:34 PM 73.4 °F 71.6 °F 94% 29.79 in 4.0 mi SE 23.0 mph 39.1 mph 0.15 in Rain Rain
9:14 PM 73.4 °F 71.6 °F 94% 29.80 in 7.0 mi SE 21.9 mph 33.4 mph 0.05 in Rain Light Rain
9:35 PM 73.4 °F 71.6 °F 94% 29.82 in 7.0 mi SE 15.0 mph 26.5 mph 0.08 in Rain Rain
9:55 PM 73.4 °F 71.6 °F 94% 29.83 in 5.0 mi SE 25.3 mph 36.8 mph 0.11 in Rain Rain
10:14 PM 71.6 °F 71.6 °F 100% 29.83 in 7.0 mi SE 20.7 mph 35.7 mph 0.03 in Rain Light Rain
10:34 PM 71.6 °F 71.6 °F 100% 29.84 in 5.0 mi SE 26.5 mph 35.7 mph 0.07 in Rain Rain
10:54 PM 73.4 °F 71.6 °F 94% 29.84 in 10.0 mi SE 18.4 mph 32.2 mph 0.11 in Rain Light Rain
11:14 PM 73.4 °F 71.6 °F 94% 29.85 in 5.0 mi SE 23.0 mph 35.7 mph 0.02 in Rain Rain
11:36 PM 73.4 °F 71.6 °F 94% 29.86 in 5.0 mi SE 17.3 mph 33.4 mph 0.05 in Rain Rain